• In Belarus
  • List of Countries
  • For 7 days
  • Water Temperature
  • Satellite Maps
  • Weather Map
  • Weather Widgets
  • user-avatar
    Login

    Hourly Weather Ghanzi

    Today, 20 October, Friday

    Time Temperature Precipitation Wind Pressure Humidity
    00:00 +22°C° 0 mm 4 mps 717 mmHg 27%
    01:00 +21°C° 0 mm 4 mps 717 mmHg 29%
    02:00 +21°C° 0 mm 4 mps 717 mmHg 30%
    03:00 +20°C° 0 mm 3 mps 717 mmHg 31%
    04:00 +20°C° 0 mm 3 mps 717 mmHg 33%
    05:00 +20°C° 0 mm 3 mps 717 mmHg 32%
    06:00 +21°C° 0 mm 3 mps 717 mmHg 31%
    07:00 +22°C° 0 mm 4 mps 718 mmHg 30%
    08:00 +25°C° 0 mm 4 mps 718 mmHg 26%
    09:00 +27°C° 0 mm 4 mps 719 mmHg 23%
    10:00 +30°C° 0 mm 4 mps 719 mmHg 19%
    11:00 +30°C° 0 mm 4 mps 718 mmHg 17%
    12:00 +31°C° 0 mm 3 mps 718 mmHg 15%
    13:00 +33°C° 0 mm 3 mps 717 mmHg 13%
    14:00 +33°C° 0 mm 3 mps 717 mmHg 13%
    15:00 +33°C° 0 mm 3 mps 717 mmHg 13%
    16:00 +33°C° 0 mm 4 mps 716 mmHg 12%
    17:00 +30°C° 0 mm 4 mps 716 mmHg 14%
    18:00 +29°C° 0 mm 4 mps 717 mmHg 16%
    19:00 +27°C° 0 mm 4 mps 717 mmHg 18%
    20:00 +26°C° 0 mm 4 mps 717 mmHg 19%
    21:00 +26°C° 0 mm 4 mps 717 mmHg 20%
    22:00 +25°C° 0 mm 4 mps 718 mmHg 21%
    23:00 +23°C° 0 mm 4 mps 717 mmHg 23%

    Tomorrow, 21 October, Saturday

    Time Temperature Precipitation Wind Pressure Humidity
    00:00 +23°C° 0 mm 4 mps 717 mmHg 24%
    01:00 +22°C° 0 mm 4 mps 717 mmHg 26%
    02:00 +22°C° 0 mm 4 mps 717 mmHg 27%
    03:00 +21°C° 0 mm 4 mps 717 mmHg 29%
    04:00 +21°C° 0 mm 4 mps 716 mmHg 30%
    05:00 +21°C° 0 mm 4 mps 717 mmHg 29%
    06:00 +22°C° 0 mm 4 mps 717 mmHg 29%
    07:00 +22°C° 0 mm 4 mps 718 mmHg 28%
    08:00 +25°C° 0 mm 4 mps 718 mmHg 24%
    09:00 +28°C° 0 mm 3 mps 718 mmHg 21%
    10:00 +30°C° 0 mm 3 mps 718 mmHg 18%
    11:00 +31°C° 0 mm 3 mps 718 mmHg 16%
    12:00 +32°C° 0 mm 2 mps 717 mmHg 14%
    13:00 +32°C° 0 mm 1 mps 716 mmHg 13%
    14:00 +32°C° 0 mm 2 mps 716 mmHg 13%
    15:00 +34°C° 0 mm 2 mps 715 mmHg 12%
    16:00 +34°C° 0 mm 2 mps 715 mmHg 12%
    17:00 +31°C° 0 mm 2 mps 715 mmHg 14%
    18:00 +29°C° 0 mm 3 mps 715 mmHg 15%
    19:00 +27°C° 0 mm 3 mps 716 mmHg 17%
    20:00 +27°C° 0 mm 3 mps 716 mmHg 18%
    21:00 +26°C° 0 mm 3 mps 716 mmHg 19%
    22:00 +25°C° 0 mm 4 mps 716 mmHg 20%
    23:00 +25°C° 0 mm 3 mps 716 mmHg 21%

    Day after tomorrow, 22 October, Sunday

    Time Temperature Precipitation Wind Pressure Humidity
    00:00 +24°C° 0 mm 3 mps 715 mmHg 22%
    01:00 +22°C° 0 mm 3 mps 715 mmHg 24%
    02:00 +22°C° 0 mm 3 mps 715 mmHg 25%
    03:00 +21°C° 0 mm 3 mps 715 mmHg 27%
    04:00 +21°C° 0 mm 3 mps 715 mmHg 28%
    05:00 +21°C° 0 mm 3 mps 715 mmHg 28%
    06:00 +22°C° 0 mm 3 mps 716 mmHg 28%
    07:00 +23°C° 0 mm 2 mps 717 mmHg 27%
    08:00 +25°C° 0 mm 2 mps 717 mmHg 24%
    09:00 +28°C° 0 mm 2 mps 717 mmHg 21%
    10:00 +30°C° 0 mm 2 mps 717 mmHg 18%
    11:00 +31°C° 0 mm 2 mps 717 mmHg 16%
    12:00 +32°C° 0 mm 2 mps 716 mmHg 14%
    13:00 +34°C° 0 mm 2 mps 715 mmHg 13%
    14:00 +34°C° 0 mm 3 mps 715 mmHg 12%
    15:00 +34°C° 0 mm 3 mps 715 mmHg 12%
    16:00 +34°C° 0 mm 4 mps 714 mmHg 12%
    17:00 +32°C° 0 mm 4 mps 715 mmHg 14%
    18:00 +29°C° 0 mm 4 mps 715 mmHg 15%
    19:00 +28°C° 0 mm 4 mps 715 mmHg 17%
    20:00 +27°C° 0 mm 4 mps 715 mmHg 18%
    21:00 +26°C° 0 mm 4 mps 715 mmHg 19%
    22:00 +25°C° 0 mm 4 mps 716 mmHg 21%
    23:00 +25°C° 0 mm 4 mps 715 mmHg 22%

    23 October, Monday

    Time Temperature Precipitation Wind Pressure Humidity
    00:00 +23°C° 0 mm 4 mps 715 mmHg 24%
    01:00 +22°C° 0 mm 4 mps 715 mmHg 25%
    02:00 +22°C° 0 mm 4 mps 715 mmHg 27%
    03:00 +21°C° 0 mm 4 mps 715 mmHg 28%
    04:00 +21°C° 0 mm 3 mps 715 mmHg 30%
    05:00 +21°C° 0 mm 3 mps 715 mmHg 30%
    06:00 +22°C° 0 mm 3 mps 716 mmHg 30%
    07:00 +22°C° 0 mm 3 mps 716 mmHg 29%
    08:00 +25°C° 0 mm 4 mps 717 mmHg 26%
    09:00 +28°C° 0 mm 4 mps 717 mmHg 22%
    10:00 +30°C° 0 mm 5 mps 717 mmHg 19%
    11:00 +32°C° 0 mm 4 mps 716 mmHg 17%
    12:00 +33°C° 0 mm 4 mps 716 mmHg 15%
    13:00 +34°C° 0 mm 4 mps 715 mmHg 14%
    14:00 +34°C° 0 mm 4 mps 715 mmHg 14%
    15:00 +34°C° 0 mm 4 mps 715 mmHg 13%
    16:00 +33°C° 0 mm 4 mps 714 mmHg 13%
    17:00 +32°C° 0 mm 4 mps 715 mmHg 15%
    18:00 +29°C° 0 mm 4 mps 715 mmHg 16%
    19:00 +27°C° 0 mm 4 mps 715 mmHg 18%
    20:00 +27°C° 0 mm 4 mps 715 mmHg 19%
    21:00 +26°C° 0 mm 4 mps 715 mmHg 20%
    22:00 +25°C° 0 mm 4 mps 715 mmHg 21%
    23:00 +25°C° 0 mm 4 mps 715 mmHg 22%

    24 October, Tuesday

    Time Temperature Precipitation Wind Pressure Humidity
    00:00 +23°C° 0 mm 4 mps 714 mmHg 23%
    01:00 +22°C° 0 mm 4 mps 714 mmHg 25%
    02:00 +22°C° 0 mm 4 mps 714 mmHg 26%
    03:00 +21°C° 0 mm 4 mps 714 mmHg 27%
    04:00 +21°C° 0 mm 4 mps 714 mmHg 28%
    05:00 +21°C° 0 mm 4 mps 715 mmHg 28%
    06:00 +22°C° 0 mm 4 mps 715 mmHg 28%
    07:00 +22°C° 0 mm 4 mps 715 mmHg 27%
    08:00 +26°C° 0 mm 4 mps 716 mmHg 24%
    09:00 +28°C° 0 mm 4 mps 716 mmHg 20%
    10:00 +32°C° 0 mm 4 mps 716 mmHg 17%
    11:00 +31°C° 0 mm 3 mps 716 mmHg 15%
    12:00 +32°C° 0 mm 2 mps 715 mmHg 14%
    13:00 +33°C° 0 mm 1 mps 714 mmHg 13%
    14:00 +33°C° 0 mm 1 mps 714 mmHg 13%
    15:00 +33°C° 0 mm 1 mps 714 mmHg 13%
    16:00 +33°C° 0 mm 1 mps 714 mmHg 13%
    17:00 +31°C° 0 mm 2 mps 714 mmHg 14%
    18:00 +30°C° 0 mm 2 mps 714 mmHg 16%
    19:00 +28°C° 0 mm 3 mps 714 mmHg 17%
    20:00 +27°C° 0 mm 3 mps 714 mmHg 18%
    21:00 +27°C° 0 mm 3 mps 714 mmHg 19%
    22:00 +26°C° 0 mm 4 mps 714 mmHg 20%
    23:00 +25°C° 0 mm 4 mps 714 mmHg 21%

    25 October, Wednesday

    Time Temperature Precipitation Wind Pressure Humidity
    00:00 +25°C° 0 mm 4 mps 714 mmHg 22%
    01:00 +24°C° 0 mm 3 mps 714 mmHg 23%
    02:00 +22°C° 0 mm 3 mps 714 mmHg 24%
    03:00 +22°C° 0 mm 3 mps 714 mmHg 25%
    04:00 +21°C° 0 mm 3 mps 714 mmHg 27%
    05:00 +22°C° 0 mm 3 mps 715 mmHg 26%
    06:00 +22°C° 0 mm 3 mps 716 mmHg 25%
    07:00 +22°C° 0 mm 3 mps 716 mmHg 25%
    08:00 +26°C° 0 mm 3 mps 716 mmHg 22%
    09:00 +28°C° 0 mm 3 mps 717 mmHg 19%
    10:00 +30°C° 0 mm 3 mps 717 mmHg 16%
    11:00 +31°C° 0 mm 2 mps 716 mmHg 15%
    12:00 +32°C° 0 mm 1 mps 715 mmHg 14%
    13:00 +33°C° 0 mm 1 mps 715 mmHg 13%
    14:00 +33°C° 0 mm 1 mps 715 mmHg 13%
    15:00 +33°C° 0 mm 1 mps 715 mmHg 13%
    16:00 +33°C° 0 mm 1 mps 714 mmHg 12%
    17:00 +31°C° 0 mm 2 mps 715 mmHg 14%
    18:00 +30°C° 0 mm 3 mps 715 mmHg 16%
    19:00 +28°C° 0 mm 4 mps 715 mmHg 17%
    20:00 +27°C° 0 mm 4 mps 715 mmHg 19%
    21:00 +26°C° 0 mm 4 mps 715 mmHg 20%
    22:00 +26°C° 0 mm 5 mps 715 mmHg 22%
    23:00 +25°C° 0 mm 5 mps 715 mmHg 26%
    Show more